Location: Givhans Ferry State Park
(33.0284°N, 80.3868°W)
Time: 06:30:02
(UTC-04:00)

Daily predictions for brighter satellites

Satellite Brightness Start Highest point End
(mag) Time Altitude Azimuth Time Altitude Azimuth Time Altitude Azimuth
Cosmos 2242 Rocket 3.6 20:44:41 10° N 20:49:08 77° E 20:53:32 10° S
ALOS 4.0 20:46:11 10° SSW 20:50:26 35° W 20:54:42 10° NNW
Cosmos 1939 Rocket 4.2 20:48:59 10° SE 20:52:18 24° ENE 20:55:37 10° NNE
Cosmos 1933 3.3 20:50:22 10° N 20:54:23 66° E 20:58:20 10° SSE
Spot 2 Rocket 3.6 20:50:00 10° SSE 20:55:01 63° ENE 21:00:05 10° N
Cosmos 1862 Rocket 3.7 20:52:20 10° N 20:56:47 61° E 21:01:11 10° SSE
ISS -2.0 20:55:10 10° WSW 20:58:10 35° NW 21:01:12 10° NNE
Resurs 01 Rocket 1.6 20:57:46 10° SSE 21:02:11 89° ENE 21:06:39 10° NNW
Hubble Space Telescope 2.9 21:00:27 10° WSW 21:03:02 16° SSW 21:05:37 10° SSE
NOSS 3-2 (C) 4.3 20:58:09 10° SW 21:03:56 57° NW 21:10:16 10° NNE
Tiangong 2 2.3 21:03:05 10° NW 21:06:05 35° NNE 21:09:02 10° E
Cosmos 2082 Rocket 3.4 21:03:02 10° NW 21:08:19 42° WSW 21:13:36 10° S
Meteor 2-3 Rocket 3.7 21:03:10 10° S 21:08:50 69° E 21:14:28 10° NNE
Cosmos 2346 Rocket 4.4 21:06:08 10° S 21:12:06 66° E 21:18:06 10° NNE
Cosmos 1825 3.8 21:10:49 13° ESE 21:12:34 17° E 21:15:03 10° NE
CENTAUR R/B 2.5 21:09:10 10° S 21:14:46 55° ESE 21:21:05 10° NE
Cosmos 1833 Rocket 4.1 21:09:56 10° NW 21:15:06 37° WSW 21:20:13 10° S
Meteor 1-26 Rocket 4.2 21:11:06 10° N 21:16:47 73° E 21:22:33 10° SSE
Okean 1-7 4.4 21:13:29 10° NNE 21:17:01 23° ENE 21:19:22 15° ESE
Timation 2 Rocket 4.3 21:11:13 10° NNW 21:17:36 73° WSW 21:24:13 10° SSE
Cosmos 2344 4.0 21:11:26 10° S 21:18:26 37° ESE 21:25:31 10° NE
OAO 2 Rocket 3.9 21:15:06 10° W 21:19:59 47° SSW 21:23:46 16° SE
Aureole 1 4.1 21:18:50 10° SSW 21:21:48 85° WNW 21:25:04 10° NNE
Envisat 3.0 21:17:00 10° SSE 21:22:04 81° ENE 21:27:10 10° N
Shenzhou-11 Module 2.2 21:19:17 10° NW 21:22:20 60° NNE 21:24:15 20° ESE
Cosmos 1782 4.3 21:19:46 10° NNE 21:22:44 20° ENE 21:24:10 17° ESE
SL-19 R/B 4.5 21:18:44 10° SSE 21:24:19 62° ENE 21:30:18 10° N
H-2A ROCKET BODY 1.8 21:26:08 10° WSW 21:28:30 40° S 21:32:05 17° ESE
DNEPR-1 R/B 3.8 21:25:36 10° SSW 21:31:14 74° ESE 21:35:56 10° NNE
Cosmos 1943 Rocket 2.3 21:25:54 10° S 21:31:19 53° ESE 21:36:43 10° NNE
Cosmos 1892 3.7 21:28:20 10° SSW 21:32:04 49° W 21:35:48 10° N
Cosmos 1703 Rocket 3.6 21:29:46 10° N 21:34:06 57° E 21:37:13 18° SSE
Cosmos 1125 Rocket 3.5 21:32:09 10° S 21:37:20 64° ESE 21:42:30 10° NNE
Helios 1B rocket 2.4 21:40:49 10° N 21:44:56 82° WNW 21:49:01 10° SSW
Cosmos 2263 4.3 21:41:08 10° SSW 21:46:55 85° WNW 21:52:41 10° NNE
Cosmos 1869 Rocket 3.5 21:43:56 10° S 21:48:15 85° W 21:52:37 10° N
ORS 1 (USA 231) 4.3 21:45:26 10° WSW 21:48:26 85° SSE 21:49:42 32° ENE
Cosmos 2084 3.4 21:44:44 10° NNW 21:48:34 58° ENE 21:50:04 34° ESE
Delta 7925 Rocket 4.2 21:46:21 10° SW 21:50:37 32° SSE 21:52:00 28° SE
Cosmos 1340 3.9 21:48:13 10° NNE 21:51:24 25° ENE 21:51:33 25° E
SAR-Lupe-4 3.7 21:52:14 38° SE 21:53:16 56° ENE 21:56:47 10° N
Lacrosse 4 Rocket 3.1 21:50:01 10° N 21:53:30 22° ENE 21:54:34 20° ENE
Cosmos 2369 Rocket 3.3 21:51:22 10° SW 21:56:46 47° WNW 22:02:15 10° N
YAOGAN 6 3.1 22:00:37 25° S 22:02:36 59° W 22:06:16 10° NNW
Cosmos 158 Rocket 4.0 22:04:09 10° N 22:08:56 55° ENE 22:10:14 42° ESE
Delta 168 4.2 22:05:54 10° WSW 22:08:34 24° SSW 22:08:34 24° SSW
Cosmos 1606 2.5 22:05:52 10° N 22:09:38 74° E 22:10:12 60° SE
H-2A R/B 3.0 22:11:04 30° E 22:12:08 32° ENE 22:16:50 10° N
Cosmos 2221 Rocket 3.8 22:08:52 10° NNW 22:13:17 71° W 22:15:20 31° S
SAR-Lupe-1 4.0 22:14:20 66° S 22:14:48 85° W 22:18:22 10° NNW
MetOp-B 4.1 22:14:45 40° SE 22:16:39 68° ENE 22:21:59 10° N
Helios 1A 4.2 22:15:29 18° SSW 22:18:03 37° W 22:21:58 10° NNW
Lacrosse 5 rocket 4.4 22:16:49 10° WNW 22:18:27 13° NW 22:20:05 10° N
GPS 2-04 Rocket1 2.4 22:14:53 10° WNW 22:18:36 72° NNE 22:18:45 71° NE
ATLAS 5 CENTAUR R/B 2.8 22:14:40 10° NNW 22:20:40 53° ENE 22:22:52 38° ESE
ERS-1 Rocket 3.0 22:23:38 39° S 22:25:31 77° WSW 22:30:34 10° NNW
Cosmos 1656 Rocket 3.5 22:25:33 35° S 22:27:52 72° ESE 22:33:21 10° NNE
OAO 3 Copernicus 4.4 22:23:35 10° W 22:28:37 75° N 22:30:29 39° ENE
ARGOS 3.0 22:28:53 51° SE 22:30:13 75° ENE 22:35:36 10° N
Cosmos 1408 4.3 22:28:17 17° SW 22:30:32 32° W 22:33:55 10° NNW
Nadezhda 4 Rocket 3.9 22:30:13 41° SSE 22:32:26 70° E 22:38:34 10° N
Cosmos 1092 Rocket 4.2 22:31:56 45° ESE 22:32:39 47° E 22:38:29 10° NNE
Meteor 1-27 Rocket 3.6 22:30:30 10° N 22:36:14 77° E 22:37:23 57° SSE
Terra 3.4 22:37:35 23° ENE 22:37:35 23° ENE 22:40:40 10° NNE
USA 215 3.6 22:37:58 37° E 22:40:19 54° NE 22:46:40 10° NNW
YAOGAN 11 4.1 22:40:30 75° ENE 22:40:30 75° ENE 22:45:01 10° N
Cosmos 1048 Rocket 4.1 22:37:26 10° NNW 22:42:42 68° WSW 22:43:45 54° SSW
Tiangong 2 3.5 22:40:06 10° W 22:41:25 20° W 22:41:25 20° W
USA 245 4.4 22:41:38 48° S 22:43:30 86° W 22:49:54 10° NNW
SPOT 5 3.2 22:56:52 62° SW 22:57:33 69° W 23:02:51 10° NNW
Intercosmos 25 Rocket 3.9 22:53:34 10° N 22:59:26 77° NNE 22:59:26 77° NNE
Milstar 3 3.1 22:53:30 10° WSW 23:04:19 63° S 23:05:32 57° SE
Cosmos 2251 Rocket 4.1 23:03:26 10° N 23:07:41 45° NE 23:07:41 45° NE
Cosmos 2227 Rocket 4.3 23:07:09 10° NNE 23:09:59 14° NE 23:09:59 14° NE
SPOT 1/Viking Rocket 3.6 23:10:32 69° W 23:10:32 69° W 23:15:38 10° NNW
DMSP B5D2-2 4.1 23:06:00 10° N 23:11:06 77° WNW 23:11:06 77° WNW
Meteor 1-14 Rocket 4.3 23:17:48 70° NE 23:17:48 70° NE 23:23:01 10° N
Cosmos 2219 3.8 23:12:15 10° N 23:17:12 47° NE 23:17:12 47° NE
Cosmos 2195 Rocket 4.4 23:21:49 83° ENE 23:21:49 83° ENE 23:28:03 10° N
GEOS 3 Rocket 4.4 23:30:20 43° NNE 23:30:20 43° NNE 23:34:32 10° NNW
Lacrosse 4 Rocket 3.5 23:28:20 10° NW 23:30:55 25° WNW 23:30:55 25° WNW
ATLAS CENTAUR R/B 3.7 23:39:00 20° N 23:39:00 20° N 23:40:33 10° N
Cosmos 1655 Rocket 4.2 23:42:11 61° NNE 23:42:11 61° NNE 23:47:18 10° N
Cosmos 2026 Rocket 4.3 23:51:36 62° WNW 23:51:36 62° WNW 23:57:20 10° N
H-2A R/B 3.7 23:51:42 26° W 23:51:42 26° W 23:55:56 10° NW
